{"data":{"norad_id":66363,"intl_designator":"2025-254R","name":"STARLINK-35806","alt_names":[],"object_type":"PAYLOAD","status":"ACTIVE","operator":null,"country":"US","launch_date":"2025-11-06","launch_site_code":"AFWTR","launch_vehicle":null,"mission":null,"orbit_class":"UNKNOWN","rcs_meters":null,"size_class":null,"mass_kg":null,"dimensions":null,"purposes":["comms"],"wikipedia_slug":null,"has_3d_model":false,"image_url":null,"decayed_at":null,"tle_current":{"epoch":"2026-09-20T13:10:38.768448Z","epoch_age_seconds":89222,"freshness":"FRESH","line1":"1 66363U 25254R   26263.54905982  .00025745  00000+0  77019-3 0  9992","line2":"2 66363  53.1581  45.6402 0001095 119.1244 240.9868 15.34411594 48834","mean_motion":15.34411594,"eccentricity":0.0001095,"inclination_deg":53.1581,"raan_deg":45.6402,"arg_perigee_deg":119.1244,"mean_anomaly_deg":240.9868,"bstar":0.00077019,"rev_number":4883,"period_min":93.847048968531,"perigee_km":461.91971237978,"apogee_km":463.41784884574,"semimajor_km":6840.8057806128,"source":"CELESTRAK","updated_at":"2026-09-21T09:00:35.882161Z"}}}